Location: ???????
(55.4362°N, 38.1183°E)
Time: 03:07:48
(UTC+00:00)

COSMOS 2428 - Pass Details

Date: 17 June 2021
Orbit: 845 x 858 km, 70.9° (Epoch: 26 July)

Event Time Altitude Azimuth Distance (km) Brightness Sun altitude
Exits shadow 20:06:23 - 198° (SSW) 2,962 5.1 -9.2°
Reaches altitude 10° 20:07:39 10° 196° (SSW) 2,487 4.7 -9.3°
Maximum altitude 20:13:17 62° 117° (ESE) 963 2.8 -9.5°
Drops below altitude 10° 20:18:57 10° 38° (NE) 2,506 5.7 -9.8°
Sets 20:21:26 0° 35° (NE) 3,446 6.5 -9.9°
